Preview of NWS' New Version of Forecast
This preview is not operational and should not be used for support decisions.
Latest weather observations around

Ottumwa, Ottumwa Industrial Airport (KOTM)

Using English Units (Switch to International System of Units)
Date/ Time (CDT) Wind (mph) Vis. (mi) Weather Sky Cond. Temp (°F) Rel. Humidity Wind Chill (°F) Heat Index (°F) Pressure Precip. (in)
Air Dwpt 6 hour Altimeter (inHg) Sea level (inHg) 1 hr 3 hr 6 hr
Max Min
Sep 20 14:53 SSE 13 10 Clear CLR 88 68     52%   92 30.01 29.98      
Sep 20 13:53 SSE 11 10 Clear CLR 87 70     57%   92 30.03 30.01      
Sep 20 12:53 ESE 9 10 Clear CLR 85 70     61%   89 30.06 30.03      
Sep 20 11:53 6 10 Clear CLR 82 70     67%   86 30.07 30.05      
Sep 20 10:53 SSE 10 10 Clear CLR 78 69     74%   79 30.09 30.07      
Sep 20 09:53 SE 9 9 Clear CLR 76 69     79%   77 30.09 30.07      
Sep 20 08:53 E 9 6 Fog/Mist CLR 72 69     91%   73 30.08 30.06      
Sep 20 07:53 E 3 5 Fog/Mist CLR 69 67     93%     30.06 30.04      
Sep 20 07:18 ESE 3 3 Fog/Mist CLR 68 67     96%     30.04        
Sep 20 07:09 E 6 2 Fog/Mist CLR 68 66     93%     30.04        
Sep 20 06:53 S 6 6 Fog/Mist CLR 67 66     97%     30.04 30.02      
Sep 20 05:53 S 7 9 Clear CLR 70 67     90%     30.03 30.01      
Sep 20 04:53 SSE 3 7 Clear CLR 69 67     93%     30.04 30.02      
Sep 20 03:53 S 5 7 Clear CLR 71 69     93%   72 30.03 30.01      
Sep 20 02:53 S 5 6 Fog/Mist SCT110 71 70     96%   72 30.03 30.01      
Sep 20 01:53 S 5 6 Fog/Mist CLR 71 69     93%   72 30.04 30.02      
Sep 20 00:53 SE 3 6 Fog/Mist BKN060 72 70     93%   73 30.04 30.01      
Sep 19 23:53 ESE 5 6 Fog/Mist BKN100 70 69     97%     30.02 30      
Sep 19 22:53 E 5 7 Partly Cloudy SCT100 71 69     93%   72 30.02 30      
Sep 19 21:53 E 6 8 Mostly Cloudy BKN100 72 69     91%   73 30.02 30      
Sep 19 20:53 ESE 5 6 Fog/Mist FEW014 FEW100 73 70     90%   74 30.01 29.99      
Sep 19 20:47 E 6 3 Fog/Mist FEW014 FEW100 73 70     89%   75 30.01        
Sep 19 20:43 ESE 5 1.5 Fog/Mist FEW015 SCT100 73 70     90%   74 30.01        
Sep 19 19:53 E 7 10 Clear CLR 76 71     85%   77 30 29.98      
Sep 19 18:53 E 7 10 Mostly Clear FEW100 79 71     77%   82 30 29.98     0
Sep 19 17:53 ESE 7 10 Clear CLR 81 71     72%   85 29.99 29.97      
Sep 19 16:53 ESE 6 10 Partly Cloudy SCT024 81 71     72%   85 29.99 29.97      
Sep 19 16:19 SE 6 10 Mostly Cloudy BKN022 80 72     76%   84 30        
Sep 19 15:53 ESE 8 10 Clear CLR 80 71     74%   84 30 29.98   0  
Sep 19 14:53 ESE 13 8 Clear CLR 77 70     79%   78 29.99 29.96 0    
Sep 19 13:53 ESE 11 8 Light Rain FEW016 SCT044 SCT120 76 71     85%   77 30.03 30.01 0    
Sep 19 13:48 E 11 7 Light Rain SCT016 BKN044 BKN095 75 72     89%   77 30.04   0    
Sep 19 13:34 E 10 6 Light Rain BKN017 BKN046 BKN090 77 71     82%   78 30.06   0    
Sep 19 13:15 E 7 10 Partly Cloudy SCT018 SCT060 79 70     74%   82 30.06        
Sep 19 12:53 E 13 10 Mostly Clear FEW070 79 69     72%   80 30.05 30.03      
Sep 19 11:53 NE 8 10 Partly Cloudy SCT020 78 68     71%   79 30.07 30.04      
Sep 19 10:53 NNW 7 10 Clear CLR 78 70     76%   79 30.06 30.04      
Sep 19 09:53 Calm 9 Partly Cloudy SCT070 75 69     82%   76 30.05 30.03      
Sep 19 08:53   9 Mostly Clear FEW010 FEW070 73 69     87%   74 30.05 30.03      
Sep 19 07:53 SSE 7 8 Clear CLR 71 68     90%   72 30.02 30.01      
Sep 19 06:53 S 7 10 Clear CLR 71 68     90%   72 30.01 29.99      
Sep 19 05:53 S 8 9 Clear CLR 70 68     93%     29.98 29.96      
Sep 19 04:53 S 8 10 Clear CLR 71 68     90%   72 29.97 29.94      
Sep 19 03:53 SSE 8 10 Clear CLR 72 68     87%   73 29.99 29.96      
Sep 19 02:53 SSE 8 10 Clear CLR 74 68     82%   75 29.99 29.97      
Sep 19 01:53 S 8 10 Clear CLR 74 68     82%   75 30 29.98      
Sep 19 00:53 SSE 8 10 Clear CLR 74 67     79%   75 29.99 29.97      
Sep 18 23:53 S 7 10 Clear CLR 74 67     79%   75 29.99 29.96      
Sep 18 22:53 S 8 10 Clear CLR 74 68     82%   75 29.98 29.96      
Sep 18 21:53 S 8 10 Clear CLR 74 68     82%   75 29.99 29.97      
Sep 18 20:53 S 7 10 Clear CLR 73 68     84%   74 29.98 29.96      
Sep 18 19:53 SSE 7 10 Clear CLR 74 66     76%   75 29.97 29.96      
Sep 18 19:08 SE 8 10 Clear CLR 73 65     76%   74 29.98        
Sep 18 19:01 E 14 10 Mostly Clear FEW070 74 65     74%   74 29.98        
Sep 18 18:53 E 14 10 Thunderstorms FEW065 74 66     76%   75 29.98 29.97 0   0
Sep 18 18:46 E 17 10 Thunderstorms FEW041 SCT065 74 67     79%   75 29.98   0    
Sep 18 18:34   10 Mostly Cloudy SCT041 BKN060 BKN075 75 67     76%   76 29.99   0    
Sep 18 18:27   10 Mostly Cloudy SCT041 SCT050 BKN065 77 69     77%   78 29.99   0    
Sep 18 18:05 ESE 8 8 Light Rain FEW046 BKN060 OVC085 85 74     70%   92 29.97   0    
Sep 18 17:53 SE 9 10 Mostly Cloudy BKN055 BKN110 87 72     61%   94 29.97 29.94      
Sep 18 16:53 SSE 9 10 Clear CLR 89 71     55%   95 29.96 29.94      
Sep 18 15:53 SSE 7 10 Clear CLR 89 71     55%   95 29.98 29.95      
Sep 18 14:53 S 8 10 Partly Cloudy SCT080 89 71     55%   95 30 29.97      
Sep 18 13:53 7 10 Mostly Cloudy BKN075 87 71     59%   93 30.01 29.99      
Sep 18 12:53 SSE 9 10 Clear CLR 86 70     59%   91 30.02 29.99      
Sep 18 11:53 S 6 10 Clear CLR 84 69     61%   88 30.02 30      
Notice The following observation data may not be complete
Sep 18 10:53   10 Clear CLR          %              
Sep 18 08:53 S 11 10 Clear CLR 74 67     79%   75 30.01 29.99      
Sep 18 07:53 SSE 10 10 Clear CLR 71 66     84%   72 30 29.98      
Sep 18 06:53 SSE 9 10 Clear CLR 70 66     87%     29.99 29.97      
Sep 18 05:53 SSE 11 10 Clear CLR 70 66     87%     29.99 29.97      
Sep 18 04:53 SSE 10 10 Clear CLR 70 66     87%     29.99 29.97      
Sep 18 03:53 SSE 10 10 Clear CLR 71 67     87%   72 30.01 29.98      
Sep 18 02:53 SSE 8 10 Clear CLR 71 67     87%   72 30.02 29.99      
Sep 18 01:53 SE 10 10 Clear CLR 73 67     81%   74 30.02 30      
Sep 18 00:53 SSE 9 10 Clear CLR 73 67     81%   74 30.02 29.99      
Sep 17 23:53 SE 9 10 Clear CLR 74 68     82%   75 30.01 29.99      
Sep 17 22:53 SE 10 10 Clear CLR 74 68     82%   75 30.01 29.99      
Sep 17 21:53 SE 8 10 Clear   74 68     82%   75 30.02 30      
Sep 17 20:53 SE 11 10 Clear CLR 75 69     82%   76 30.01 29.99      
Sep 17 19:53 ESE 8 10 Clear CLR 77 71     82%   78 30 29.98      
Sep 17 18:53 ESE 10 10 Clear CLR 81 72     74%   85 29.99 29.97      
Sep 17 17:53 SE 11 10 Clear CLR 84 72     67%   90 30 29.98      
Sep 17 16:53 SE 13 10 Clear CLR 85 71     63%   90 30 29.98      
Sep 17 15:53 SE 11 10 Clear CLR 86 73     65%   93 30.01 29.99      
Sep 17 14:53 SE 11 10 Clear CLR 84 71     65%   89 30.03 30.01      
May 15 06:23 NW 9 2 Thunderstorms and Heavy Rain and Fog/Mist FEW006 BKN010 OVC050 64 63     96%     29.94   0    
May 15 03:53   5 Clear   65 63     93%     29.86 29.84 0 0  
May 14 14:10 NW 9 6 Haze BKN018 75 67     76%   76 29.91        
May 14 12:53 N 9 4 Haze SCT013 73 66     79%   74 29.92 29.91      
May 14 10:53 W 7 5 Haze CLR 71 64     79%   72 29.93 29.92      
May 13 11:49 NNE 6 2.5 Clear   57 54     88%     30.04        
May 12 10:49   2.5 Rain and Fog/Mist BKN085 OVC110 48 48     100%     29.96   0    
May 12 02:53 ENE 13 10 Mostly Clear FEW065 50 45     83% 45   29.9 29.89 0    
May 12 00:53 ENE 11 10 Mostly Cloudy SCT060 BKN120 53 46     77%     29.91 29.91     0
May 11 20:53 ENE 15 10 Cloudy SCT060 OVC090 60 49     67%     29.85 29.84      
Notice The following observation data may not be complete
May 11 11:53 S 13 10 Clear CLR   63      %     29.8 29.79      
Jun 11 22:53 S 10 10 Clear CLR 79 66     65%   80 29.84 29.82      
Jun 10 12:53 SSW 25 10 Clear and Windy CLR 86 61     43%   86 29.75 29.73      
Jun 10 01:53 S 10 10 Clear CLR 68 54     61%     29.79 29.76      
Jun 09 15:53 SSW 13 10 Clear   88 54     31%   86 29.79 29.77      
Jun 08 09:53 WSW 8 10 Clear CLR 75 51     43%   74 30.04 30.03      
Jun 08 06:53 Calm 10 Clear CLR 58 49     72%     30.05 30.03      
Jun 07 07:53 Calm 10 Clear CLR 67 50     55%     30.14 30.13